Time,TemperatureF,DewpointF,PressureIn,WindDirection,WindDirectionDegrees,WindSpeedMPH,WindSpeedGustMPH,Humidity,HourlyPrecipIn,Conditions,Clouds,dailyrainin,SoftwareType,DateUTC
2013-08-06 00:00:00,74.8,69.7,29.98,West,271,0.0,0.0,84,0.00,RA,,0.00,WeatherDisplay:10.37,2013-08-06 04:00:00,
2013-08-06 00:01:00,74.8,69.7,29.98,West,271,0.0,0.0,84,0.00,RA,,0.00,WeatherDisplay:10.37,2013-08-06 04:01:00,
2013-08-06 00:06:00,74.7,69.5,29.98,West,271,2.3,0.0,84,0.00,RA,,0.00,WeatherDisplay:10.37,2013-08-06 04:06:00,
2013-08-06 00:11:00,74.7,69.5,29.98,West,271,0.0,0.0,84,0.00,BKN,,0.00,WeatherDisplay:10.37,2013-08-06 04:11:00,
2013-08-06 00:16:00,74.5,69.3,29.98,West,271,0.0,0.0,84,0.00,BKN,,0.00,WeatherDisplay:10.37,2013-08-06 04:16:00,
2013-08-06 00:21:00,74.5,69.3,29.98,NW,315,0.0,0.0,84,0.00,BKN,,0.00,WeatherDisplay:10.37,2013-08-06 04:21:00,
2013-08-06 00:26:00,74.5,69.3,29.98,NW,315,0.0,0.0,84,0.00,BKN,,0.00,WeatherDisplay:10.37,2013-08-06 04:26:00,
2013-08-06 00:31:00,74.7,69.5,29.98,NW,315,0.0,0.0,84,0.00,BKN,,0.00,WeatherDisplay:10.37,2013-08-06 04:31:00,
2013-08-06 00:36:00,74.7,69.5,29.98,NW,315,0.0,0.0,84,0.00,BKN,,0.00,WeatherDisplay:10.37,2013-08-06 04:36:00,
2013-08-06 00:41:00,74.7,69.5,29.98,NW,315,0.0,0.0,84,0.00,BKN,,0.00,WeatherDisplay:10.37,2013-08-06 04:41:00,
2013-08-06 00:46:00,74.7,69.5,29.98,NW,315,0.0,0.0,84,0.00,BKN,,0.00,WeatherDisplay:10.37,2013-08-06 04:46:00,
2013-08-06 00:51:00,74.3,69.1,29.98,NW,315,0.0,0.0,84,0.00,BKN,,0.00,WeatherDisplay:10.37,2013-08-06 04:51:00,
2013-08-06 00:56:00,74.3,69.1,29.98,NW,315,0.0,0.0,84,0.00,BKN,,0.00,WeatherDisplay:10.37,2013-08-06 04:56:00,
2013-08-06 01:01:00,74.1,69.0,29.98,NW,315,0.0,0.0,84,0.00,BKN,,0.00,WeatherDisplay:10.37,2013-08-06 05:01:00,
2013-08-06 01:06:00,74.1,69.0,29.98,NW,315,0.0,0.0,84,0.00,BKN,,0.00,WeatherDisplay:10.37,2013-08-06 05:06:00,
2013-08-06 01:11:00,73.9,68.8,29.98,NW,315,0.0,0.0,84,0.00,BKN,,0.00,WeatherDisplay:10.37,2013-08-06 05:11:00,
2013-08-06 01:16:00,73.9,68.8,29.98,NW,315,0.0,0.0,84,0.00,BKN,,0.00,WeatherDisplay:10.37,2013-08-06 05:16:00,
2013-08-06 01:21:00,73.8,68.6,29.98,NW,315,0.0,0.0,84,0.00,BKN,,0.00,WeatherDisplay:10.37,2013-08-06 05:21:00,
2013-08-06 01:26:00,73.8,68.6,29.98,NW,315,0.0,0.0,84,0.00,BKN,,0.00,WeatherDisplay:10.37,2013-08-06 05:26:00,
2013-08-06 01:31:00,73.6,68.4,29.98,NW,315,0.0,0.0,84,0.00,BKN,,0.00,WeatherDisplay:10.37,2013-08-06 05:31:00,
2013-08-06 01:36:00,73.6,68.4,29.98,NW,315,0.0,0.0,84,0.00,BKN,,0.00,WeatherDisplay:10.37,2013-08-06 05:36:00,
2013-08-06 01:41:00,73.6,68.4,29.98,NW,315,0.0,0.0,84,0.00,BKN,,0.00,WeatherDisplay:10.37,2013-08-06 05:41:00,
2013-08-06 01:46:00,73.4,68.3,29.98,NW,315,0.0,0.0,84,0.00,BKN,,0.00,WeatherDisplay:10.37,2013-08-06 05:46:00,
2013-08-06 01:51:00,73.4,68.3,29.98,NW,315,0.0,0.0,84,0.00,BKN,,0.00,WeatherDisplay:10.37,2013-08-06 05:51:00,
2013-08-06 01:57:00,73.4,68.3,29.98,NW,315,0.0,0.0,84,0.00,BKN,,0.00,WeatherDisplay:10.37,2013-08-06 05:57:00,
2013-08-06 02:02:00,73.4,68.3,29.98,NW,315,0.0,0.0,84,0.00,BKN,,0.00,WeatherDisplay:10.37,2013-08-06 06:02:00,
2013-08-06 02:07:00,73.4,68.3,29.98,NW,315,0.0,0.0,84,0.00,BKN,,0.00,WeatherDisplay:10.37,2013-08-06 06:07:00,
2013-08-06 02:12:00,73.4,68.3,29.98,NW,315,0.0,0.0,84,0.00,BKN,,0.00,WeatherDisplay:10.37,2013-08-06 06:12:00,
2013-08-06 02:17:00,73.2,68.1,29.98,NW,315,0.0,0.0,84,0.00,BKN,,0.00,WeatherDisplay:10.37,2013-08-06 06:17:00,
2013-08-06 02:22:00,73.2,68.1,29.98,NW,315,0.0,0.0,84,0.00,BKN,,0.00,WeatherDisplay:10.37,2013-08-06 06:22:00,
2013-08-06 02:27:00,73.2,68.1,29.98,NW,315,0.0,0.0,84,0.00,BKN,,0.00,WeatherDisplay:10.37,2013-08-06 06:27:00,
2013-08-06 02:32:00,73.2,68.1,29.98,NW,315,0.0,0.0,84,0.00,BKN,,0.00,WeatherDisplay:10.37,2013-08-06 06:32:00,
2013-08-06 02:37:00,73.0,67.9,29.98,NW,315,0.0,0.0,84,0.00,BKN,,0.00,WeatherDisplay:10.37,2013-08-06 06:37:00,
2013-08-06 02:42:00,73.2,68.1,29.98,NW,315,0.0,0.0,84,0.00,BKN,,0.00,WeatherDisplay:10.37,2013-08-06 06:42:00,
2013-08-06 02:47:00,73.0,67.9,29.98,NW,315,0.0,0.0,84,0.00,BKN,,0.00,WeatherDisplay:10.37,2013-08-06 06:47:00,
2013-08-06 02:52:00,72.9,67.7,29.98,NW,315,0.0,0.0,84,0.00,BKN,,0.00,WeatherDisplay:10.37,2013-08-06 06:52:00,
2013-08-06 02:57:00,72.9,67.7,29.98,NW,315,0.0,0.0,84,0.00,BKN,,0.00,WeatherDisplay:10.37,2013-08-06 06:57:00,
2013-08-06 03:02:00,72.9,67.7,29.98,NW,315,0.0,0.0,84,0.00,BKN,,0.00,WeatherDisplay:10.37,2013-08-06 07:02:00,
2013-08-06 03:07:00,72.9,67.7,29.98,NW,315,0.0,0.0,84,0.00,BKN,,0.00,WeatherDisplay:10.37,2013-08-06 07:07:00,
2013-08-06 03:12:00,73.0,67.9,29.98,NW,315,0.0,0.0,84,0.00,BKN,,0.00,WeatherDisplay:10.37,2013-08-06 07:12:00,
2013-08-06 03:17:00,72.9,67.7,29.98,NW,315,0.0,0.0,84,0.00,BKN,,0.00,WeatherDisplay:10.37,2013-08-06 07:17:00,
2013-08-06 03:22:00,72.9,67.7,29.98,NW,315,0.0,0.0,84,0.00,BKN,,0.00,WeatherDisplay:10.37,2013-08-06 07:22:00,
2013-08-06 03:27:00,72.7,67.6,29.98,NW,315,0.0,0.0,84,0.00,BKN,,0.00,WeatherDisplay:10.37,2013-08-06 07:27:00,
2013-08-06 03:32:00,72.7,67.6,29.98,NW,315,0.0,0.0,84,0.00,BKN,,0.00,WeatherDisplay:10.37,2013-08-06 07:32:00,
2013-08-06 03:37:00,72.5,67.4,29.98,NW,315,0.0,0.0,84,0.00,BKN,,0.00,WeatherDisplay:10.37,2013-08-06 07:37:00,
2013-08-06 03:42:00,72.5,67.4,29.98,NW,315,0.0,0.0,84,0.00,BKN,,0.00,WeatherDisplay:10.37,2013-08-06 07:42:00,
2013-08-06 03:47:00,72.5,67.4,29.98,NW,315,0.0,0.0,84,0.00,BKN,,0.00,WeatherDisplay:10.37,2013-08-06 07:47:00,
2013-08-06 03:52:00,72.5,67.4,29.98,NW,315,0.0,0.0,84,0.00,BKN,,0.00,WeatherDisplay:10.37,2013-08-06 07:52:00,
2013-08-06 03:57:00,72.5,67.4,29.98,ESE,118,0.0,0.0,84,0.00,BKN,,0.00,WeatherDisplay:10.37,2013-08-06 07:57:00,
2013-08-06 04:02:00,72.3,67.2,29.98,SE,140,4.6,4.6,84,0.00,BKN,,0.00,WeatherDisplay:10.37,2013-08-06 08:02:00,
2013-08-06 04:07:00,72.3,69.2,29.92,SSE,150,3.6,3.6,90,0.00,CLR,,0.00,WeatherDisplay:10.37,2013-08-06 08:07:00,
2013-08-06 04:12:00,72.5,69.4,29.92,SE,130,3.5,3.5,90,0.00,CLR,,0.00,WeatherDisplay:10.37,2013-08-06 08:12:00,
2013-08-06 04:17:00,72.5,69.4,29.92,ESE,123,3.6,0.0,90,0.00,CLR,,0.00,WeatherDisplay:10.37,2013-08-06 08:17:00,
2013-08-06 04:22:00,72.7,69.6,29.92,ESE,123,0.0,0.0,90,0.00,CLR,,0.00,WeatherDisplay:10.37,2013-08-06 08:22:00,
2013-08-06 04:27:00,72.7,69.6,29.92,ESE,123,0.0,0.0,90,0.00,CLR,,0.00,WeatherDisplay:10.37,2013-08-06 08:27:00,
2013-08-06 04:32:00,72.9,69.8,29.92,SE,129,2.3,0.0,90,0.00,CLR,,0.00,WeatherDisplay:10.37,2013-08-06 08:32:00,
2013-08-06 04:37:00,72.9,69.8,29.92,SSE,150,3.5,3.5,90,0.00,CLR,,0.00,WeatherDisplay:10.37,2013-08-06 08:37:00,
2013-08-06 04:42:00,73.0,69.9,29.92,SSE,148,0.0,0.0,90,0.00,CLR,,0.00,WeatherDisplay:10.37,2013-08-06 08:42:00,
2013-08-06 04:47:00,73.0,69.9,29.92,SSE,147,0.0,0.0,90,0.00,CLR,,0.00,WeatherDisplay:10.37,2013-08-06 08:47:00,
2013-08-06 04:52:00,73.0,69.9,29.92,SSE,147,0.0,0.0,90,0.00,CLR,,0.00,WeatherDisplay:10.37,2013-08-06 08:52:00,
2013-08-06 04:57:00,73.0,69.9,29.92,SSE,147,0.0,0.0,90,0.00,CLR,,0.00,WeatherDisplay:10.37,2013-08-06 08:57:00,
2013-08-06 05:02:00,73.0,69.9,29.92,SE,139,0.0,0.0,90,0.00,CLR,,0.00,WeatherDisplay:10.37,2013-08-06 09:02:00,
2013-08-06 05:07:00,73.0,69.9,29.92,SE,139,0.0,0.0,90,0.00,CLR,,0.00,WeatherDisplay:10.37,2013-08-06 09:07:00,
2013-08-06 05:12:00,73.0,69.9,29.92,SE,139,0.0,0.0,90,0.00,CLR,,0.00,WeatherDisplay:10.37,2013-08-06 09:12:00,
2013-08-06 05:17:00,73.0,69.9,29.92,SE,139,0.0,0.0,90,0.00,CLR,,0.00,WeatherDisplay:10.37,2013-08-06 09:17:00,
2013-08-06 05:22:00,73.0,69.9,29.92,SE,139,0.0,0.0,90,0.00,CLR,,0.00,WeatherDisplay:10.37,2013-08-06 09:22:00,
2013-08-06 05:27:00,73.0,69.9,29.92,SE,139,0.0,0.0,90,0.00,CLR,,0.00,WeatherDisplay:10.37,2013-08-06 09:27:00,
2013-08-06 05:32:00,73.0,69.9,29.92,SE,139,0.0,0.0,90,0.00,CLR,,0.00,WeatherDisplay:10.37,2013-08-06 09:32:00,
2013-08-06 05:37:00,72.9,69.8,29.92,SE,139,0.0,0.0,90,0.00,CLR,,0.00,WeatherDisplay:10.37,2013-08-06 09:37:00,
2013-08-06 05:42:00,72.9,69.8,29.92,SE,139,0.0,0.0,90,0.00,CLR,,0.00,WeatherDisplay:10.37,2013-08-06 09:42:00,
2013-08-06 05:47:00,72.9,69.8,29.92,SE,139,0.0,0.0,90,0.00,CLR,,0.00,WeatherDisplay:10.37,2013-08-06 09:47:00,
2013-08-06 05:52:00,72.9,69.8,29.92,SE,139,0.0,0.0,90,0.00,CLR,,0.00,WeatherDisplay:10.37,2013-08-06 09:52:00,
2013-08-06 05:57:00,72.7,69.6,29.92,SE,139,0.0,0.0,90,0.00,CLR,,0.00,WeatherDisplay:10.37,2013-08-06 09:57:00,
2013-08-06 06:02:00,72.7,69.6,29.92,SE,139,0.0,0.0,90,0.00,CLR,,0.00,WeatherDisplay:10.37,2013-08-06 10:02:00,
2013-08-06 06:07:00,72.7,70.9,29.93,SE,139,0.0,0.0,94,0.00,OVC,,0.00,WeatherDisplay:10.37,2013-08-06 10:07:00,
2013-08-06 06:12:00,72.5,70.7,29.93,SE,139,0.0,0.0,94,0.00,OVC,,0.00,WeatherDisplay:10.37,2013-08-06 10:12:00,
2013-08-06 06:17:00,72.5,70.7,29.93,SE,139,0.0,0.0,94,0.00,OVC,,0.00,WeatherDisplay:10.37,2013-08-06 10:17:00,
2013-08-06 06:22:00,72.5,70.7,29.93,SE,139,0.0,0.0,94,0.00,OVC,,0.00,WeatherDisplay:10.37,2013-08-06 10:22:00,
2013-08-06 06:27:00,72.5,70.7,29.93,SE,139,0.0,0.0,94,0.00,OVC,,0.00,WeatherDisplay:10.37,2013-08-06 10:27:00,
2013-08-06 06:32:00,72.3,70.5,29.93,SE,139,0.0,0.0,94,0.00,OVC,,0.00,WeatherDisplay:10.37,2013-08-06 10:32:00,
2013-08-06 06:37:00,72.3,70.5,29.93,SE,139,0.0,0.0,94,0.00,OVC,,0.00,WeatherDisplay:10.37,2013-08-06 10:37:00,
2013-08-06 06:42:00,72.5,70.7,29.93,SE,139,0.0,0.0,94,0.00,OVC,,0.00,WeatherDisplay:10.37,2013-08-06 10:42:00,
2013-08-06 06:47:00,72.5,70.7,29.93,SE,139,0.0,0.0,94,0.00,OVC,,0.00,WeatherDisplay:10.37,2013-08-06 10:47:00,
2013-08-06 06:52:00,72.5,70.7,29.93,SE,139,0.0,0.0,94,0.00,OVC,,0.00,WeatherDisplay:10.37,2013-08-06 10:52:00,
2013-08-06 06:57:00,72.5,70.7,29.93,SE,139,0.0,0.0,94,0.00,OVC,,0.00,WeatherDisplay:10.37,2013-08-06 10:57:00,
2013-08-06 07:02:00,72.3,70.5,29.93,SE,139,0.0,0.0,94,0.00,OVC,,0.00,WeatherDisplay:10.37,2013-08-06 11:02:00,
2013-08-06 07:07:00,72.5,70.7,29.93,SE,139,0.0,0.0,94,0.00,OVC,,0.00,WeatherDisplay:10.37,2013-08-06 11:07:00,
2013-08-06 07:12:00,72.5,70.7,29.93,SE,139,0.0,0.0,94,0.00,OVC,,0.00,WeatherDisplay:10.37,2013-08-06 11:12:00,
2013-08-06 07:17:00,72.5,70.7,29.93,SE,139,0.0,0.0,94,0.00,OVC,,0.00,WeatherDisplay:10.37,2013-08-06 11:17:00,
2013-08-06 07:22:00,72.7,70.9,29.93,SE,139,0.0,0.0,94,0.00,OVC,,0.00,WeatherDisplay:10.37,2013-08-06 11:22:00,
2013-08-06 07:27:00,72.9,71.0,29.93,SE,139,0.0,0.0,94,0.00,OVC,,0.00,WeatherDisplay:10.37,2013-08-06 11:27:00,
2013-08-06 07:32:00,73.0,71.2,29.93,SE,139,0.0,0.0,94,0.00,OVC,,0.00,WeatherDisplay:10.37,2013-08-06 11:32:00,
2013-08-06 07:37:00,73.4,71.6,29.93,SE,139,0.0,0.0,94,0.00,OVC,,0.00,WeatherDisplay:10.37,2013-08-06 11:37:00,
2013-08-06 07:43:00,73.6,71.7,29.93,SE,139,0.0,0.0,94,0.00,OVC,,0.00,WeatherDisplay:10.37,2013-08-06 11:43:00,
2013-08-06 07:48:00,73.6,71.7,29.93,SE,139,0.0,0.0,94,0.00,OVC,,0.00,WeatherDisplay:10.37,2013-08-06 11:48:00,
2013-08-06 07:53:00,73.8,71.9,29.93,SE,139,0.0,0.0,94,0.00,OVC,,0.00,WeatherDisplay:10.37,2013-08-06 11:53:00,
2013-08-06 07:58:00,73.9,72.1,29.93,SE,139,0.0,0.0,94,0.00,OVC,,0.00,WeatherDisplay:10.37,2013-08-06 11:58:00,
2013-08-06 08:03:00,74.3,72.5,29.93,SE,139,0.0,0.0,94,0.00,OVC,,0.00,WeatherDisplay:10.37,2013-08-06 12:03:00,
2013-08-06 08:08:00,74.8,73.0,29.93,SE,139,0.0,0.0,94,0.00,OVC,,0.00,WeatherDisplay:10.37,2013-08-06 12:08:00,
2013-08-06 08:13:00,75.2,73.4,29.93,SE,139,0.0,0.0,94,0.00,OVC,,0.00,WeatherDisplay:10.37,2013-08-06 12:13:00,
2013-08-06 08:18:00,75.6,73.7,29.93,SE,139,0.0,0.0,94,0.00,OVC,,0.00,WeatherDisplay:10.37,2013-08-06 12:18:00,
2013-08-06 08:23:00,75.7,73.9,29.93,SE,139,0.0,0.0,94,0.00,OVC,,0.00,WeatherDisplay:10.37,2013-08-06 12:23:00,
2013-08-06 08:28:00,76.1,74.2,29.93,SE,139,0.0,0.0,94,0.00,OVC,,0.00,WeatherDisplay:10.37,2013-08-06 12:28:00,
2013-08-06 08:33:00,76.1,74.2,29.93,SE,139,0.0,0.0,94,0.00,OVC,,0.00,WeatherDisplay:10.37,2013-08-06 12:33:00,
2013-08-06 08:38:00,76.6,74.8,29.93,SE,139,0.0,0.0,94,0.00,OVC,,0.00,WeatherDisplay:10.37,2013-08-06 12:38:00,
2013-08-06 08:43:00,77.2,75.3,29.93,SE,139,0.0,0.0,94,0.00,OVC,,0.00,WeatherDisplay:10.37,2013-08-06 12:43:00,
2013-08-06 08:48:00,77.7,75.9,29.93,SE,139,0.0,0.0,94,0.00,OVC,,0.00,WeatherDisplay:10.37,2013-08-06 12:48:00,
2013-08-06 08:53:00,78.1,76.2,29.93,SE,139,0.0,0.0,94,0.00,OVC,,0.00,WeatherDisplay:10.37,2013-08-06 12:53:00,
2013-08-06 08:58:00,78.8,76.9,29.93,SE,139,0.0,0.0,94,0.00,OVC,,0.00,WeatherDisplay:10.37,2013-08-06 12:58:00,
2013-08-06 09:03:00,80.1,78.2,29.93,SE,137,3.5,3.5,94,0.00,OVC,,0.00,WeatherDisplay:10.37,2013-08-06 13:03:00,
2013-08-06 09:08:00,80.8,78.6,29.96,SSW,193,3.5,3.6,93,0.00,CLR,,0.00,WeatherDisplay:10.37,2013-08-06 13:08:00,
2013-08-06 09:13:00,81.1,78.9,29.96,South,170,2.7,0.0,93,0.00,CLR,,0.00,WeatherDisplay:10.37,2013-08-06 13:13:00,
2013-08-06 09:18:00,81.5,79.3,29.96,South,190,3.5,0.0,93,0.00,CLR,,0.00,WeatherDisplay:10.37,2013-08-06 13:18:00,
2013-08-06 09:23:00,81.9,79.6,29.96,SE,139,0.0,0.0,93,0.00,CLR,,0.00,WeatherDisplay:10.37,2013-08-06 13:23:00,
2013-08-06 09:28:00,82.6,80.3,29.96,SSE,156,3.5,3.5,93,0.00,CLR,,0.00,WeatherDisplay:10.37,2013-08-06 13:28:00,
2013-08-06 09:33:00,82.8,80.5,29.96,East,80,3.5,0.0,93,0.00,CLR,,0.00,WeatherDisplay:10.37,2013-08-06 13:33:00,
2013-08-06 09:38:00,83.3,81.1,29.96,East,83,2.7,0.0,93,0.00,CLR,,0.00,WeatherDisplay:10.37,2013-08-06 13:38:00,
2013-08-06 09:43:00,83.8,81.6,29.96,SE,139,3.5,0.0,93,0.00,CLR,,0.00,WeatherDisplay:10.37,2013-08-06 13:43:00,
2013-08-06 09:48:00,84.7,82.5,29.96,SSE,150,0.0,0.0,93,0.00,CLR,,0.00,WeatherDisplay:10.37,2013-08-06 13:48:00,
2013-08-06 09:53:00,84.9,82.7,29.96,SSE,156,3.5,3.5,93,0.00,CLR,,0.00,WeatherDisplay:10.37,2013-08-06 13:53:00,
2013-08-06 09:58:00,84.7,82.5,29.96,ESE,109,3.5,3.5,93,0.00,CLR,,0.00,WeatherDisplay:10.37,2013-08-06 13:58:00,
2013-08-06 10:03:00,84.9,82.7,29.96,SSE,150,0.0,3.1,93,0.00,CLR,,0.00,WeatherDisplay:10.37,2013-08-06 14:03:00,
2013-08-06 10:08:00,84.9,79.5,29.96,SE,133,0.0,0.0,84,0.00,CLR,,0.00,WeatherDisplay:10.37,2013-08-06 14:08:00,
2013-08-06 10:13:00,86.0,80.6,29.96,East,101,2.3,2.3,84,0.00,CLR,,0.00,WeatherDisplay:10.37,2013-08-06 14:13:00,
2013-08-06 10:18:00,86.0,80.6,29.96,SSW,205,3.6,0.0,84,0.00,CLR,,0.00,WeatherDisplay:10.37,2013-08-06 14:18:00,
2013-08-06 10:23:00,86.5,81.1,29.96,South,180,0.0,0.0,84,0.00,CLR,,0.00,WeatherDisplay:10.37,2013-08-06 14:23:00,
2013-08-06 10:28:00,86.7,81.3,29.96,East,100,3.5,3.5,84,0.00,CLR,,0.00,WeatherDisplay:10.37,2013-08-06 14:28:00,
2013-08-06 10:33:00,87.1,81.7,29.96,SSE,147,0.0,0.0,84,0.00,CLR,,0.00,WeatherDisplay:10.37,2013-08-06 14:33:00,
2013-08-06 10:38:00,87.3,81.8,29.96,West,277,0.0,0.0,84,0.00,CLR,,0.00,WeatherDisplay:10.37,2013-08-06 14:38:00,
2013-08-06 10:43:00,87.6,82.2,29.96,ESE,110,4.6,4.6,84,0.00,CLR,,0.00,WeatherDisplay:10.37,2013-08-06 14:43:00,
2013-08-06 10:48:00,87.6,82.2,29.96,East,101,0.0,0.0,84,0.00,CLR,,0.00,WeatherDisplay:10.37,2013-08-06 14:48:00,
2013-08-06 10:53:00,87.8,82.4,29.96,SSE,166,3.6,3.6,84,0.00,CLR,,0.00,WeatherDisplay:10.37,2013-08-06 14:53:00,
2013-08-06 10:58:00,87.6,82.2,29.96,South,178,4.6,4.6,84,0.00,CLR,,0.00,WeatherDisplay:10.37,2013-08-06 14:58:00,
2013-08-06 11:03:00,88.2,82.7,29.96,ESE,123,5.8,5.8,84,0.00,CLR,,0.00,WeatherDisplay:10.37,2013-08-06 15:03:00,
2013-08-06 11:08:00,88.3,82.9,29.96,SE,140,4.6,4.6,84,0.00,CLR,,0.00,WeatherDisplay:10.37,2013-08-06 15:08:00,
2013-08-06 11:13:00,88.7,83.2,29.96,ESE,121,4.6,0.0,84,0.00,CLR,,0.00,WeatherDisplay:10.37,2013-08-06 15:13:00,
2013-08-06 11:18:00,88.7,83.2,29.96,ESE,120,3.5,3.5,84,0.00,CLR,,0.00,WeatherDisplay:10.37,2013-08-06 15:18:00,
2013-08-06 11:23:00,88.3,82.9,29.96,SSE,167,2.3,0.0,84,0.00,CLR,,0.00,WeatherDisplay:10.37,2013-08-06 15:23:00,
2013-08-06 11:28:00,89.2,83.8,29.96,ENE,64,3.5,3.5,84,0.00,CLR,,0.00,WeatherDisplay:10.37,2013-08-06 15:28:00,
2013-08-06 11:33:00,89.6,84.1,29.96,SSE,167,6.3,6.3,84,0.00,CLR,,0.00,WeatherDisplay:10.37,2013-08-06 15:33:00,
2013-08-06 11:38:00,89.2,83.8,29.96,South,187,2.7,0.0,84,0.00,CLR,,0.00,WeatherDisplay:10.37,2013-08-06 15:38:00,
2013-08-06 11:43:00,89.6,84.1,29.96,East,81,8.1,8.1,84,0.00,CLR,,0.00,WeatherDisplay:10.37,2013-08-06 15:43:00,
2013-08-06 11:48:00,90.1,84.6,29.96,East,91,8.1,8.1,84,0.00,CLR,,0.00,WeatherDisplay:10.37,2013-08-06 15:48:00,
2013-08-06 11:53:00,90.3,84.8,29.96,East,100,5.8,5.8,84,0.00,CLR,,0.00,WeatherDisplay:10.37,2013-08-06 15:53:00,
2013-08-06 11:58:00,90.3,84.8,29.96,SE,125,3.5,3.5,84,0.00,CLR,,0.00,WeatherDisplay:10.37,2013-08-06 15:58:00,
2013-08-06 12:03:00,90.1,84.6,29.96,SE,142,3.5,0.0,84,0.00,CLR,,0.00,WeatherDisplay:10.37,2013-08-06 16:03:00,
2013-08-06 12:08:00,90.1,84.6,29.96,SE,130,4.9,4.9,84,0.00,CLR,,0.00,WeatherDisplay:10.37,2013-08-06 16:08:00,
2013-08-06 12:13:00,90.5,85.0,29.96,SSE,168,5.8,5.8,84,0.00,CLR,,0.00,WeatherDisplay:10.37,2013-08-06 16:13:00,
2013-08-06 12:18:00,90.7,85.2,29.96,SSW,206,5.8,5.8,84,0.00,CLR,,0.00,WeatherDisplay:10.37,2013-08-06 16:18:00,
2013-08-06 12:23:00,90.7,85.2,29.96,ESE,122,2.7,0.0,84,0.00,CLR,,0.00,WeatherDisplay:10.37,2013-08-06 16:23:00,
2013-08-06 12:28:00,91.2,85.7,29.96,ENE,71,0.0,0.0,84,0.00,CLR,,0.00,WeatherDisplay:10.37,2013-08-06 16:28:00,
2013-08-06 12:33:00,91.2,85.7,29.96,South,189,3.5,3.6,84,0.00,CLR,,0.00,WeatherDisplay:10.37,2013-08-06 16:33:00,
2013-08-06 12:38:00,91.0,85.5,29.96,North,4,4.6,4.6,84,0.00,CLR,,0.00,WeatherDisplay:10.37,2013-08-06 16:38:00,
2013-08-06 12:43:00,90.5,85.0,29.96,ESE,114,8.1,8.1,84,0.00,CLR,,0.00,WeatherDisplay:10.37,2013-08-06 16:43:00,
2013-08-06 12:48:00,89.4,83.9,29.96,East,93,4.6,4.6,84,0.00,CLR,,0.00,WeatherDisplay:10.37,2013-08-06 16:48:00,
2013-08-06 12:53:00,90.0,84.5,29.96,ESE,110,5.8,5.8,84,0.00,CLR,,0.00,WeatherDisplay:10.37,2013-08-06 16:53:00,
2013-08-06 12:58:00,90.7,85.2,29.96,SE,127,5.8,5.8,84,0.00,CLR,,0.00,WeatherDisplay:10.37,2013-08-06 16:58:00,
2013-08-06 13:03:00,91.0,78.6,29.99,NE,53,2.3,0.0,67,0.00,CLR,,0.00,WeatherDisplay:10.37,2013-08-06 17:03:00,
2013-08-06 13:08:00,91.8,79.2,29.99,ENE,76,0.0,0.0,67,0.00,CLR,,0.00,WeatherDisplay:10.37,2013-08-06 17:08:00,
2013-08-06 13:13:00,92.1,79.6,29.99,NE,46,5.8,5.8,67,0.00,CLR,,0.00,WeatherDisplay:10.37,2013-08-06 17:13:00,
2013-08-06 13:18:00,91.8,79.2,29.99,SSE,159,5.8,5.8,67,0.00,CLR,,0.00,WeatherDisplay:10.37,2013-08-06 17:18:00,
2013-08-06 13:23:00,91.0,78.6,29.99,ENE,77,5.8,5.8,67,0.00,CLR,,0.00,WeatherDisplay:10.37,2013-08-06 17:23:00,
2013-08-06 13:27:00,91.6,79.1,29.99,East,82,5.8,5.8,67,0.00,CLR,,0.00,WeatherDisplay:10.37,2013-08-06 17:27:00,
2013-08-06 13:32:00,91.9,79.4,29.99,East,85,8.1,8.1,67,0.00,CLR,,0.00,WeatherDisplay:10.37,2013-08-06 17:32:00,
2013-08-06 13:37:00,92.7,80.1,29.99,SSE,168,3.6,3.6,67,0.00,CLR,,0.00,WeatherDisplay:10.37,2013-08-06 17:37:00,
2013-08-06 13:42:00,92.8,80.3,29.99,SSE,149,5.8,5.8,67,0.00,CLR,,0.00,WeatherDisplay:10.37,2013-08-06 17:42:00,
2013-08-06 13:47:00,92.5,79.9,29.99,ESE,120,5.8,5.8,67,0.00,CLR,,0.00,WeatherDisplay:10.37,2013-08-06 17:47:00,
2013-08-06 13:52:00,93.0,80.4,29.99,SE,135,5.8,5.8,67,0.00,CLR,,0.00,WeatherDisplay:10.37,2013-08-06 17:52:00,
2013-08-06 13:58:00,93.7,81.1,29.99,SE,145,6.9,6.9,67,0.00,CLR,,0.00,WeatherDisplay:10.37,2013-08-06 17:58:00,
2013-08-06 14:03:00,93.6,80.9,29.99,SSE,151,5.8,5.8,67,0.00,CLR,,0.00,WeatherDisplay:10.37,2013-08-06 18:03:00,
2013-08-06 14:08:00,93.2,80.6,29.99,SE,130,4.6,4.6,67,0.00,CLR,,0.00,WeatherDisplay:10.37,2013-08-06 18:08:00,
2013-08-06 14:13:00,92.8,80.3,29.99,East,101,5.8,5.8,67,0.00,CLR,,0.00,WeatherDisplay:10.37,2013-08-06 18:13:00,
2013-08-06 14:18:00,93.7,81.1,29.99,ENE,75,9.2,9.2,67,0.00,CLR,,0.00,WeatherDisplay:10.37,2013-08-06 18:18:00,
2013-08-06 14:23:00,93.7,81.1,29.99,ESE,104,5.8,5.8,67,0.00,CLR,,0.00,WeatherDisplay:10.37,2013-08-06 18:23:00,
2013-08-06 14:28:00,93.2,80.6,29.99,East,98,9.2,9.2,67,0.00,CLR,,0.00,WeatherDisplay:10.37,2013-08-06 18:28:00,
2013-08-06 14:33:00,93.2,80.6,29.99,ENE,68,8.1,8.1,67,0.00,CLR,,0.00,WeatherDisplay:10.37,2013-08-06 18:33:00,
2013-08-06 14:38:00,93.0,80.4,29.99,SSE,167,9.2,9.2,67,0.00,CLR,,0.00,WeatherDisplay:10.37,2013-08-06 18:38:00,
2013-08-06 14:43:00,92.3,79.8,29.99,East,100,5.8,5.8,67,0.00,CLR,,0.00,WeatherDisplay:10.37,2013-08-06 18:43:00,
2013-08-06 14:48:00,92.8,80.3,29.99,East,101,8.1,8.1,67,0.00,CLR,,0.00,WeatherDisplay:10.37,2013-08-06 18:48:00,
2013-08-06 14:53:00,92.3,79.8,29.99,ESE,117,9.2,9.2,67,0.00,CLR,,0.00,WeatherDisplay:10.37,2013-08-06 18:53:00,
2013-08-06 14:58:00,92.7,80.1,29.99,East,100,11.5,11.5,67,0.00,CLR,,0.00,WeatherDisplay:10.37,2013-08-06 18:58:00,
2013-08-06 15:03:00,92.7,80.1,29.99,East,88,5.8,5.8,67,0.00,CLR,,0.00,WeatherDisplay:10.37,2013-08-06 19:03:00,
2013-08-06 15:08:00,92.8,75.4,29.94,ESE,119,8.1,8.1,57,0.00,BKN,,0.00,WeatherDisplay:10.37,2013-08-06 19:08:00,
2013-08-06 15:13:00,92.3,74.9,29.94,East,98,5.8,7.2,57,0.00,BKN,,0.00,WeatherDisplay:10.37,2013-08-06 19:13:00,
2013-08-06 15:18:00,91.4,74.0,29.94,SE,136,9.2,9.2,57,0.00,BKN,,0.00,WeatherDisplay:10.37,2013-08-06 19:18:00,
2013-08-06 15:23:00,91.0,73.7,29.94,East,81,9.2,9.2,57,0.00,BKN,,0.00,WeatherDisplay:10.37,2013-08-06 19:23:00,
2013-08-06 15:28:00,91.0,73.7,29.94,ENE,72,8.1,8.1,57,0.00,BKN,,0.00,WeatherDisplay:10.37,2013-08-06 19:28:00,
2013-08-06 15:33:00,91.2,73.9,29.94,East,81,9.2,9.2,57,0.00,BKN,,0.00,WeatherDisplay:10.37,2013-08-06 19:33:00,
2013-08-06 15:38:00,91.2,73.9,29.94,SE,137,9.2,9.2,57,0.00,BKN,,0.00,WeatherDisplay:10.37,2013-08-06 19:38:00,
2013-08-06 15:43:00,91.2,73.9,29.94,SE,145,8.7,8.7,57,0.00,BKN,,0.00,WeatherDisplay:10.37,2013-08-06 19:43:00,
2013-08-06 15:48:00,91.4,74.0,29.94,ENE,78,6.9,6.9,57,0.00,BKN,,0.00,WeatherDisplay:10.37,2013-08-06 19:48:00,
2013-08-06 15:53:00,91.6,74.2,29.94,ESE,119,5.8,5.8,57,0.00,BKN,,0.00,WeatherDisplay:10.37,2013-08-06 19:53:00,
2013-08-06 15:58:00,91.4,74.0,29.94,East,101,8.1,8.1,57,0.00,BKN,,0.00,WeatherDisplay:10.37,2013-08-06 19:58:00,
2013-08-06 16:03:00,90.7,73.4,29.94,SE,126,5.8,5.8,57,0.00,BKN,,0.00,WeatherDisplay:10.37,2013-08-06 20:03:00,
2013-08-06 16:08:00,90.7,73.4,29.94,East,81,8.3,8.3,57,0.00,BKN,,0.00,WeatherDisplay:10.37,2013-08-06 20:08:00,
2013-08-06 16:13:00,90.3,73.0,29.94,East,89,5.8,5.8,57,0.00,BKN,,0.00,WeatherDisplay:10.37,2013-08-06 20:13:00,
2013-08-06 16:18:00,90.7,73.4,29.94,SE,132,4.6,4.6,57,0.00,BKN,,0.00,WeatherDisplay:10.37,2013-08-06 20:18:00,
2013-08-06 16:23:00,90.9,73.5,29.94,East,95,5.8,5.8,57,0.00,BKN,,0.00,WeatherDisplay:10.37,2013-08-06 20:23:00,
2013-08-06 16:28:00,91.2,73.9,29.94,East,98,8.1,8.1,57,0.00,BKN,,0.00,WeatherDisplay:10.37,2013-08-06 20:28:00,
2013-08-06 16:32:00,91.4,74.0,29.94,ENE,73,5.8,5.8,57,0.00,BKN,,0.00,WeatherDisplay:10.37,2013-08-06 20:32:00,
2013-08-06 16:37:00,91.2,73.9,29.94,East,88,8.1,8.1,57,0.00,BKN,,0.00,WeatherDisplay:10.37,2013-08-06 20:37:00,
2013-08-06 16:42:00,91.0,73.7,29.94,South,172,5.8,5.8,57,0.00,BKN,,0.00,WeatherDisplay:10.37,2013-08-06 20:42:00,
2013-08-06 16:47:00,91.6,74.2,29.94,East,92,5.8,5.8,57,0.00,BKN,,0.00,WeatherDisplay:10.37,2013-08-06 20:47:00,
2013-08-06 16:52:00,90.7,73.4,29.94,East,92,5.8,5.8,57,0.00,BKN,,0.00,WeatherDisplay:10.37,2013-08-06 20:52:00,
2013-08-06 16:57:00,90.0,72.7,29.94,East,88,6.9,6.9,57,0.00,BKN,,0.00,WeatherDisplay:10.37,2013-08-06 20:57:00,
2013-08-06 17:02:00,89.6,72.3,29.94,SE,135,5.8,5.8,57,0.00,BKN,,0.00,WeatherDisplay:10.37,2013-08-06 21:02:00,
2013-08-06 17:07:00,90.0,78.9,29.93,East,83,8.1,8.1,70,0.00,FEW,,0.00,WeatherDisplay:10.37,2013-08-06 21:07:00,
2013-08-06 17:12:00,90.3,79.2,29.93,East,87,8.1,8.1,70,0.00,FEW,,0.00,WeatherDisplay:10.37,2013-08-06 21:12:00,
2013-08-06 17:17:00,90.5,79.4,29.93,East,99,5.8,5.8,70,0.00,FEW,,0.00,WeatherDisplay:10.37,2013-08-06 21:17:00,
2013-08-06 17:22:00,90.1,79.0,29.93,ENE,69,10.4,10.4,70,0.00,FEW,,0.00,WeatherDisplay:10.37,2013-08-06 21:22:00,
2013-08-06 17:27:00,90.1,79.0,29.93,SE,134,5.8,5.8,70,0.00,FEW,,0.00,WeatherDisplay:10.37,2013-08-06 21:27:00,
2013-08-06 17:32:00,90.3,79.2,29.93,East,100,9.2,9.2,70,0.00,FEW,,0.00,WeatherDisplay:10.37,2013-08-06 21:32:00,
2013-08-06 17:37:00,89.8,78.7,29.93,SE,124,5.8,5.8,70,0.00,FEW,,0.00,WeatherDisplay:10.37,2013-08-06 21:37:00,
2013-08-06 17:42:00,89.2,78.2,29.93,East,91,9.2,9.2,70,0.00,FEW,,0.00,WeatherDisplay:10.37,2013-08-06 21:42:00,
2013-08-06 17:47:00,88.9,77.8,29.93,East,91,5.8,5.8,70,0.00,FEW,,0.00,WeatherDisplay:10.37,2013-08-06 21:47:00,
2013-08-06 17:52:00,88.5,77.5,29.93,ENE,71,6.9,6.9,70,0.00,FEW,,0.00,WeatherDisplay:10.37,2013-08-06 21:52:00,
2013-08-06 17:57:00,88.0,77.0,29.93,ESE,115,6.9,6.9,70,0.00,FEW,,0.00,WeatherDisplay:10.37,2013-08-06 21:57:00,
2013-08-06 18:02:00,87.6,76.6,29.93,SE,131,8.1,8.1,70,0.00,FEW,,0.00,WeatherDisplay:10.37,2013-08-06 22:02:00,
2013-08-06 18:07:00,87.4,76.4,29.93,ESE,115,5.8,6.7,70,0.00,FEW,,0.00,WeatherDisplay:10.37,2013-08-06 22:07:00,
2013-08-06 18:12:00,87.1,76.1,29.93,ESE,109,5.8,5.8,70,0.00,FEW,,0.00,WeatherDisplay:10.37,2013-08-06 22:12:00,
2013-08-06 18:17:00,86.9,75.9,29.93,ENE,72,5.8,5.8,70,0.00,FEW,,0.00,WeatherDisplay:10.37,2013-08-06 22:17:00,
2013-08-06 18:22:00,86.7,75.8,29.93,East,80,9.2,9.2,70,0.00,FEW,,0.00,WeatherDisplay:10.37,2013-08-06 22:22:00,
2013-08-06 18:27:00,86.4,75.4,29.93,East,88,5.8,5.8,70,0.00,FEW,,0.00,WeatherDisplay:10.37,2013-08-06 22:27:00,
2013-08-06 18:32:00,86.2,75.2,29.93,East,97,5.8,5.8,70,0.00,FEW,,0.00,WeatherDisplay:10.37,2013-08-06 22:32:00,
2013-08-06 18:37:00,85.8,74.9,29.93,ENE,73,5.8,5.8,70,0.00,FEW,,0.00,WeatherDisplay:10.37,2013-08-06 22:37:00,
2013-08-06 18:42:00,85.6,74.7,29.93,East,87,5.8,5.8,70,0.00,FEW,,0.00,WeatherDisplay:10.37,2013-08-06 22:42:00,
2013-08-06 18:47:00,85.5,74.6,29.93,ESE,113,5.8,5.8,70,0.00,FEW,,0.00,WeatherDisplay:10.37,2013-08-06 22:47:00,
2013-08-06 18:52:00,85.3,74.4,29.93,ESE,121,5.8,5.8,70,0.00,FEW,,0.00,WeatherDisplay:10.37,2013-08-06 22:52:00,
2013-08-06 18:57:00,85.3,74.4,29.93,ESE,114,6.9,6.9,70,0.00,FEW,,0.00,WeatherDisplay:10.37,2013-08-06 22:57:00,
2013-08-06 19:02:00,85.3,74.4,29.93,ESE,122,4.6,4.6,70,0.00,FEW,,0.00,WeatherDisplay:10.37,2013-08-06 23:02:00,
2013-08-06 19:07:00,85.1,74.2,29.93,SSE,147,3.5,3.5,70,0.00,FEW,,0.00,WeatherDisplay:10.37,2013-08-06 23:07:00,
2013-08-06 19:12:00,84.7,73.9,29.93,ESE,116,8.1,8.1,70,0.00,FEW,,0.00,WeatherDisplay:10.37,2013-08-06 23:12:00,
2013-08-06 19:17:00,84.2,73.3,29.93,SE,125,5.8,5.8,70,0.00,FEW,,0.00,WeatherDisplay:10.37,2013-08-06 23:17:00,
2013-08-06 19:22:00,84.0,73.2,29.93,ESE,112,5.8,5.8,70,0.00,FEW,,0.00,WeatherDisplay:10.37,2013-08-06 23:22:00,
2013-08-06 19:27:00,83.5,72.7,29.93,ESE,115,5.8,5.8,70,0.00,FEW,,0.00,WeatherDisplay:10.37,2013-08-06 23:27:00,
2013-08-06 19:32:00,83.1,72.3,29.93,SE,140,6.9,6.9,70,0.00,FEW,,0.00,WeatherDisplay:10.37,2013-08-06 23:32:00,
2013-08-06 19:37:00,82.8,72.0,29.93,SE,125,5.8,5.8,70,0.00,FEW,,0.00,WeatherDisplay:10.37,2013-08-06 23:37:00,
2013-08-06 19:42:00,82.4,71.6,29.93,SSE,149,8.3,8.3,70,0.00,FEW,,0.00,WeatherDisplay:10.37,2013-08-06 23:42:00,
2013-08-06 19:47:00,82.0,71.3,29.93,ESE,118,4.0,4.0,70,0.00,FEW,,0.00,WeatherDisplay:10.37,2013-08-06 23:47:00,
2013-08-06 19:52:00,81.9,71.1,29.93,SE,135,5.8,5.8,70,0.00,FEW,,0.00,WeatherDisplay:10.37,2013-08-06 23:52:00,
2013-08-06 19:57:00,81.5,70.8,29.93,ESE,116,5.8,5.8,70,0.00,FEW,,0.00,WeatherDisplay:10.37,2013-08-06 23:57:00,
2013-08-06 20:02:00,81.3,70.6,29.93,ESE,117,3.5,3.5,70,0.00,FEW,,0.00,WeatherDisplay:10.37,2013-08-07 00:02:00,
2013-08-06 20:07:00,81.1,70.4,29.93,South,171,3.5,0.0,70,0.00,FEW,,0.00,WeatherDisplay:10.37,2013-08-07 00:07:00,
2013-08-06 20:12:00,81.0,70.3,29.93,ESE,115,3.5,3.5,70,0.00,FEW,,0.00,WeatherDisplay:10.37,2013-08-07 00:12:00,
2013-08-06 20:17:00,80.8,70.1,29.93,SE,125,5.8,5.8,70,0.00,FEW,,0.00,WeatherDisplay:10.37,2013-08-07 00:17:00,
2013-08-06 20:22:00,80.6,69.9,29.93,East,91,3.5,3.5,70,0.00,FEW,,0.00,WeatherDisplay:10.37,2013-08-07 00:22:00,
2013-08-06 20:27:00,80.4,69.7,29.93,ESE,108,4.6,4.6,70,0.00,FEW,,0.00,WeatherDisplay:10.37,2013-08-07 00:27:00,
2013-08-06 20:32:00,80.2,69.6,29.93,ESE,120,3.5,3.5,70,0.00,FEW,,0.00,WeatherDisplay:10.37,2013-08-07 00:32:00,
2013-08-06 20:37:00,80.1,69.4,29.93,ESE,115,2.3,0.0,70,0.00,FEW,,0.00,WeatherDisplay:10.37,2013-08-07 00:37:00,
2013-08-06 20:42:00,80.1,69.4,29.93,ESE,120,0.0,0.0,70,0.00,FEW,,0.00,WeatherDisplay:10.37,2013-08-07 00:42:00,
2013-08-06 20:47:00,79.9,69.2,29.93,ESE,123,3.5,3.5,70,0.00,FEW,,0.00,WeatherDisplay:10.37,2013-08-07 00:47:00,
2013-08-06 20:52:00,79.7,69.0,29.93,ESE,123,3.5,0.0,70,0.00,FEW,,0.00,WeatherDisplay:10.37,2013-08-07 00:52:00,
2013-08-06 20:57:00,79.5,68.9,29.93,SE,135,3.5,3.5,70,0.00,FEW,,0.00,WeatherDisplay:10.37,2013-08-07 00:57:00,
2013-08-06 21:02:00,79.3,68.7,29.93,SE,142,3.5,3.5,70,0.00,FEW,,0.00,WeatherDisplay:10.37,2013-08-07 01:02:00,
2013-08-06 21:07:00,79.3,68.7,29.93,SE,128,5.8,5.8,70,0.00,FEW,,0.00,WeatherDisplay:10.37,2013-08-07 01:07:00,
2013-08-06 21:12:00,79.3,68.7,29.93,SE,142,3.5,3.5,70,0.00,FEW,,0.00,WeatherDisplay:10.37,2013-08-07 01:12:00,
2013-08-06 21:17:00,79.3,68.7,29.93,East,83,2.7,0.0,70,0.00,FEW,,0.00,WeatherDisplay:10.37,2013-08-07 01:17:00,
2013-08-06 21:23:00,79.2,68.5,29.93,NE,42,0.0,0.0,70,0.00,FEW,,0.00,WeatherDisplay:10.37,2013-08-07 01:23:00,
2013-08-06 21:28:00,79.2,68.5,29.93,East,100,3.5,0.0,70,0.00,FEW,,0.00,WeatherDisplay:10.37,2013-08-07 01:28:00,
2013-08-06 21:33:00,79.2,68.5,29.93,East,91,3.5,3.5,70,0.00,FEW,,0.00,WeatherDisplay:10.37,2013-08-07 01:33:00,
2013-08-06 21:38:00,79.2,68.5,29.93,East,87,3.5,3.5,70,0.00,FEW,,0.00,WeatherDisplay:10.37,2013-08-07 01:38:00,
2013-08-06 21:43:00,79.2,68.5,29.93,East,92,3.5,3.5,70,0.00,FEW,,0.00,WeatherDisplay:10.37,2013-08-07 01:43:00,
2013-08-06 21:48:00,79.0,68.4,29.93,ENE,78,3.5,3.5,70,0.00,FEW,,0.00,WeatherDisplay:10.37,2013-08-07 01:48:00,
2013-08-06 21:53:00,79.0,68.4,29.93,ESE,119,0.0,0.0,70,0.00,FEW,,0.00,WeatherDisplay:10.37,2013-08-07 01:53:00,
2013-08-06 21:58:00,79.0,68.4,29.93,ESE,119,3.5,0.0,70,0.00,FEW,,0.00,WeatherDisplay:10.37,2013-08-07 01:58:00,
2013-08-06 22:03:00,78.8,68.2,29.93,ESE,110,3.5,0.0,70,0.00,FEW,,0.00,WeatherDisplay:10.37,2013-08-07 02:03:00,
2013-08-06 22:08:00,78.8,73.6,29.96,ESE,110,3.5,0.0,84,0.00,CLR,,0.00,WeatherDisplay:10.37,2013-08-07 02:08:00,
2013-08-06 22:13:00,78.6,73.4,29.96,ENE,76,3.5,3.5,84,0.00,CLR,,0.00,WeatherDisplay:10.37,2013-08-07 02:13:00,
2013-08-06 22:18:00,78.6,73.4,29.96,East,97,3.6,3.6,84,0.00,CLR,,0.00,WeatherDisplay:10.37,2013-08-07 02:18:00,
2013-08-06 22:23:00,78.6,73.4,29.96,East,89,3.5,0.0,84,0.00,CLR,,0.00,WeatherDisplay:10.37,2013-08-07 02:23:00,
2013-08-06 22:28:00,78.4,73.2,29.96,East,90,0.0,0.0,84,0.00,CLR,,0.00,WeatherDisplay:10.37,2013-08-07 02:28:00,
2013-08-06 22:33:00,78.4,73.2,29.96,East,90,0.0,0.0,84,0.00,CLR,,0.00,WeatherDisplay:10.37,2013-08-07 02:33:00,
2013-08-06 22:38:00,78.3,73.0,29.96,East,90,0.0,0.0,84,0.00,CLR,,0.00,WeatherDisplay:10.37,2013-08-07 02:38:00,
2013-08-06 22:43:00,78.3,73.0,29.96,East,90,2.3,0.0,84,0.00,CLR,,0.00,WeatherDisplay:10.37,2013-08-07 02:43:00,
2013-08-06 22:48:00,78.1,72.8,29.96,ENE,63,2.7,2.7,84,0.00,CLR,,0.00,WeatherDisplay:10.37,2013-08-07 02:48:00,
2013-08-06 22:53:00,78.1,72.8,29.96,NNE,33,0.0,0.0,84,0.00,CLR,,0.00,WeatherDisplay:10.37,2013-08-07 02:53:00,
2013-08-06 22:58:00,77.9,72.7,29.96,NNE,33,0.0,0.0,84,0.00,CLR,,0.00,WeatherDisplay:10.37,2013-08-07 02:58:00,
2013-08-06 23:03:00,77.9,72.7,29.96,NE,37,2.3,0.0,84,0.00,CLR,,0.00,WeatherDisplay:10.37,2013-08-07 03:03:00,
2013-08-06 23:08:00,77.7,72.5,29.96,NE,37,0.0,0.0,84,0.00,CLR,,0.00,WeatherDisplay:10.37,2013-08-07 03:08:00,
2013-08-06 23:13:00,77.7,72.5,29.96,NE,37,0.0,0.0,84,0.00,CLR,,0.00,WeatherDisplay:10.37,2013-08-07 03:13:00,
2013-08-06 23:18:00,77.5,72.3,29.96,NE,37,0.0,0.0,84,0.00,CLR,,0.00,WeatherDisplay:10.37,2013-08-07 03:18:00,
2013-08-06 23:23:00,77.4,72.1,29.96,NE,37,0.0,0.0,84,0.00,CLR,,0.00,WeatherDisplay:10.37,2013-08-07 03:23:00,
2013-08-06 23:28:00,77.4,72.1,29.96,NE,37,0.0,0.0,84,0.00,CLR,,0.00,WeatherDisplay:10.37,2013-08-07 03:28:00,
2013-08-06 23:33:00,77.2,72.0,29.96,NE,37,0.0,0.0,84,0.00,CLR,,0.00,WeatherDisplay:10.37,2013-08-07 03:33:00,
2013-08-06 23:38:00,77.2,72.0,29.96,NE,37,0.0,0.0,84,0.00,CLR,,0.00,WeatherDisplay:10.37,2013-08-07 03:38:00,
2013-08-06 23:43:00,77.0,71.8,29.96,NE,37,0.0,0.0,84,0.00,CLR,,0.00,WeatherDisplay:10.37,2013-08-07 03:43:00,
2013-08-06 23:48:00,77.0,71.8,29.96,NE,37,0.0,0.0,84,0.00,CLR,,0.00,WeatherDisplay:10.37,2013-08-07 03:48:00,
2013-08-06 23:53:00,76.8,71.6,29.96,NNE,30,0.0,0.0,84,0.00,CLR,,0.00,WeatherDisplay:10.37,2013-08-07 03:53:00,
2013-08-06 23:58:00,76.8,71.6,29.96,NNE,30,0.0,0.0,84,0.00,CLR,,0.00,WeatherDisplay:10.37,2013-08-07 03:58:00,